TimePDT,TemperatureF,Dew PointF,Humidity,Sea Level PressureIn,VisibilityMPH,Wind Direction,Wind SpeedMPH,Gust SpeedMPH,PrecipitationIn,Events,Conditions,WindDirDegrees,DateUTC
12:15 AM,32.0,8.6,38,30.25,10.0,West,13.8,-,N/A,,Clear,280,2013-10-04 07:15:00
12:35 AM,32.0,8.6,38,30.25,10.0,West,15.0,-,N/A,,Clear,280,2013-10-04 07:35:00
12:55 AM,32.0,8.6,38,30.25,10.0,WNW,16.1,-,N/A,,Clear,290,2013-10-04 07:55:00
1:15 AM,30.2,8.6,40,30.26,10.0,WNW,15.0,-,N/A,,Clear,290,2013-10-04 08:15:00
1:35 AM,30.2,10.4,44,30.27,10.0,West,11.5,-,N/A,,Clear,280,2013-10-04 08:35:00
1:55 AM,30.2,10.4,44,30.27,10.0,WNW,16.1,-,N/A,,Clear,290,2013-10-04 08:55:00
2:15 AM,30.2,10.4,44,30.27,10.0,West,15.0,-,N/A,,Clear,280,2013-10-04 09:15:00
2:35 AM,30.2,10.4,44,30.27,10.0,West,13.8,-,N/A,,Clear,280,2013-10-04 09:35:00
2:55 AM,30.2,12.2,47,30.26,10.0,West,10.4,-,N/A,,Clear,280,2013-10-04 09:55:00
3:15 AM,28.4,10.4,47,30.26,10.0,West,11.5,-,N/A,,Clear,280,2013-10-04 10:15:00
3:35 AM,26.6,10.4,51,30.27,10.0,West,12.7,-,N/A,,Clear,270,2013-10-04 10:35:00
3:55 AM,26.6,10.4,51,30.27,10.0,West,11.5,-,N/A,,Clear,280,2013-10-04 10:55:00
4:15 AM,30.2,12.2,47,30.27,10.0,NW,11.5,-,N/A,,Clear,310,2013-10-04 11:15:00
4:35 AM,30.2,12.2,47,30.27,10.0,NW,11.5,-,N/A,,Clear,320,2013-10-04 11:35:00
4:55 AM,28.4,12.2,51,30.28,10.0,WNW,11.5,-,N/A,,Clear,290,2013-10-04 11:55:00
5:15 AM,28.4,12.2,51,30.29,10.0,West,11.5,-,N/A,,Clear,280,2013-10-04 12:15:00
5:35 AM,28.4,12.2,51,30.29,10.0,West,10.4,-,N/A,,Clear,280,2013-10-04 12:35:00
5:55 AM,32.0,14.0,48,30.31,10.0,WNW,10.4,-,N/A,,Clear,300,2013-10-04 12:55:00
6:15 AM,30.2,14.0,51,30.31,10.0,WNW,10.4,16.1,N/A,,Clear,290,2013-10-04 13:15:00
6:35 AM,30.2,14.0,51,30.31,10.0,WNW,10.4,-,N/A,,Clear,290,2013-10-04 13:35:00
6:55 AM,28.4,12.2,51,30.32,10.0,West,9.2,-,N/A,,Clear,270,2013-10-04 13:55:00
7:15 AM,28.4,12.2,51,30.33,10.0,WNW,8.1,-,N/A,,Clear,300,2013-10-04 14:15:00
7:35 AM,30.2,14.0,51,30.34,10.0,WNW,9.2,-,N/A,,Clear,300,2013-10-04 14:35:00
7:55 AM,32.0,14.0,48,30.35,10.0,WNW,10.4,-,N/A,,Clear,290,2013-10-04 14:55:00
8:15 AM,35.6,14.0,41,30.35,10.0,West,10.4,-,N/A,,Clear,280,2013-10-04 15:15:00
8:35 AM,35.6,14.0,41,30.36,10.0,WNW,10.4,-,N/A,,Clear,290,2013-10-04 15:35:00
9:15 AM,39.2,12.2,33,30.37,10.0,West,9.2,-,N/A,,Clear,280,2013-10-04 16:15:00
9:35 AM,41.0,10.4,29,30.37,10.0,WNW,5.8,-,N/A,,Clear,300,2013-10-04 16:35:00
9:55 AM,42.8,8.6,25,30.38,10.0,WNW,10.4,16.1,N/A,,Clear,290,2013-10-04 16:55:00
10:15 AM,44.6,6.8,21,30.38,10.0,NW,8.1,-,N/A,,Clear,320,2013-10-04 17:15:00
10:35 AM,46.4,6.8,20,30.38,10.0,NW,8.1,-,N/A,,Clear,320,2013-10-04 17:35:00
10:55 AM,46.4,5.0,18,30.38,10.0,NW,6.9,-,N/A,,Clear,310,2013-10-04 17:55:00
11:15 AM,48.2,5.0,17,30.38,10.0,NNW,4.6,-,N/A,,Clear,340,2013-10-04 18:15:00
11:35 AM,50.0,5.0,16,30.38,10.0,NNW,6.9,-,N/A,,Clear,330,2013-10-04 18:35:00
11:55 AM,50.0,5.0,16,30.37,10.0,Calm,Calm,-,N/A,,Clear,0,2013-10-04 18:55:00
12:15 PM,51.8,3.2,14,30.37,10.0,West,5.8,-,N/A,,Clear,270,2013-10-04 19:15:00
12:35 PM,51.8,5.0,15,30.36,10.0,WSW,5.8,-,N/A,,Clear,250,2013-10-04 19:35:00
12:55 PM,51.8,3.2,14,30.35,10.0,West,3.5,-,N/A,,Clear,270,2013-10-04 19:55:00
1:15 PM,55.4,1.4,11,30.34,10.0,East,4.6,-,N/A,,Clear,100,2013-10-04 20:15:00
1:35 PM,55.4,1.4,11,30.33,10.0,NW,5.8,-,N/A,,Clear,320,2013-10-04 20:35:00
1:55 PM,57.2,-0.4,10,30.33,10.0,NW,6.9,-,N/A,,Clear,320,2013-10-04 20:55:00
2:15 PM,55.4,-0.4,10,30.32,10.0,SSW,4.6,-,N/A,,Clear,210,2013-10-04 21:15:00
2:35 PM,57.2,-0.4,10,30.32,10.0,Calm,Calm,-,N/A,,Clear,0,2013-10-04 21:35:00
2:55 PM,57.2,-2.2,9,30.32,10.0,NNW,6.9,-,N/A,,Clear,340,2013-10-04 21:55:00
3:15 PM,57.2,-2.2,9,30.32,10.0,NNE,9.2,-,N/A,,Clear,20,2013-10-04 22:15:00
3:35 PM,59.0,-2.2,8,30.32,10.0,North,11.5,-,N/A,,Clear,350,2013-10-04 22:35:00
3:55 PM,57.2,-4.0,8,30.33,10.0,NNW,6.9,-,N/A,,Clear,340,2013-10-04 22:55:00
4:15 PM,59.0,-2.2,8,30.33,10.0,NNW,9.2,-,N/A,,Clear,330,2013-10-04 23:15:00
4:35 PM,57.2,-2.2,9,30.33,10.0,NNW,9.2,-,N/A,,Clear,340,2013-10-04 23:35:00
4:55 PM,57.2,-2.2,9,30.33,10.0,North,10.4,-,N/A,,Clear,360,2013-10-04 23:55:00
5:15 PM,55.4,-4.0,9,30.33,10.0,NW,5.8,-,N/A,,Clear,320,2013-10-05 00:15:00
5:35 PM,55.4,-4.0,9,30.33,10.0,NNW,9.2,-,N/A,,Clear,340,2013-10-05 00:35:00
5:55 PM,53.6,-2.2,10,30.34,10.0,NNW,12.7,-,N/A,,Clear,340,2013-10-05 00:55:00
6:15 PM,50.0,-0.4,13,30.34,10.0,NNW,9.2,-,N/A,,Clear,340,2013-10-05 01:15:00
6:35 PM,46.4,-0.4,14,30.35,10.0,Calm,Calm,-,N/A,,Clear,0,2013-10-05 01:35:00
6:55 PM,44.6,-0.4,15,30.36,10.0,North,3.5,-,N/A,,Clear,350,2013-10-05 01:55:00
7:15 PM,42.8,-0.4,16,30.37,10.0,NW,3.5,-,N/A,,Clear,310,2013-10-05 02:15:00
7:35 PM,41.0,-2.2,16,30.38,10.0,Calm,Calm,-,N/A,,Clear,0,2013-10-05 02:35:00
7:55 PM,39.2,1.4,21,30.38,10.0,West,3.5,-,N/A,,Clear,270,2013-10-05 02:55:00
8:15 PM,37.4,-0.4,20,30.39,10.0,North,3.5,-,N/A,,Clear,350,2013-10-05 03:15:00
8:35 PM,35.6,1.4,24,30.40,10.0,Calm,Calm,-,N/A,,Clear,0,2013-10-05 03:35:00
8:55 PM,35.6,1.4,24,30.40,10.0,Calm,Calm,-,N/A,,Clear,0,2013-10-05 03:55:00
9:15 PM,35.6,1.4,24,30.41,10.0,Calm,Calm,-,N/A,,Clear,0,2013-10-05 04:15:00
9:35 PM,33.8,1.4,25,30.42,10.0,Calm,Calm,-,N/A,,Clear,0,2013-10-05 04:35:00
9:55 PM,33.8,1.4,25,30.43,10.0,West,4.6,-,N/A,,Clear,280,2013-10-05 04:55:00
10:15 PM,32.0,1.4,27,30.42,10.0,West,4.6,-,N/A,,Clear,280,2013-10-05 05:15:00
10:35 PM,32.0,1.4,27,30.43,10.0,NW,3.5,-,N/A,,Clear,320,2013-10-05 05:35:00
10:55 PM,32.0,1.4,27,30.43,10.0,Calm,Calm,-,N/A,,Clear,0,2013-10-05 05:55:00
11:15 PM,30.2,1.4,29,30.43,10.0,North,3.5,-,N/A,,Clear,10,2013-10-05 06:15:00
11:35 PM,30.2,1.4,29,30.43,10.0,NNW,3.5,-,N/A,,Clear,340,2013-10-05 06:35:00
11:55 PM,28.4,1.4,31,30.43,10.0,NW,3.5,-,N/A,,Clear,310,2013-10-05 06:55:00